Time,TemperatureF,DewpointF,PressureIn,WindDirection,WindDirectionDegrees,WindSpeedMPH,WindSpeedGustMPH,Humidity,HourlyPrecipIn,Conditions,Clouds,dailyrainin,SoftwareType,DateUTC
2013-07-26 00:02:00,64.8,57.4,29.97,WSW,248,0.0,0.0,77,0.00,CLR,SKC,0.00,WeatherDisplay:10.37,2013-07-25 22:02:00,
2013-07-26 00:07:00,64.8,57.4,29.97,WSW,248,0.0,0.0,77,0.00,CLR,SKC,0.00,WeatherDisplay:10.37,2013-07-25 22:07:00,
2013-07-26 00:13:00,64.8,57.4,29.97,WSW,248,0.0,0.0,77,0.00,CLR,SKC,0.00,WeatherDisplay:10.37,2013-07-25 22:13:00,
2013-07-26 00:18:00,64.4,57.4,29.97,West,270,0.0,0.0,78,0.00,CLR,SKC,0.00,WeatherDisplay:10.37,2013-07-25 22:18:00,
2013-07-26 00:23:00,64.2,57.6,29.97,West,270,0.0,0.0,79,0.00,CLR,SKC,0.00,WeatherDisplay:10.37,2013-07-25 22:23:00,
2013-07-26 00:28:00,64.2,57.6,29.97,West,270,0.0,0.0,79,0.00,CLR,SKC,0.00,WeatherDisplay:10.37,2013-07-25 22:28:00,
2013-07-26 00:33:00,64.2,57.2,29.97,West,270,0.0,0.0,78,0.00,CLR,SKC,0.00,WeatherDisplay:10.37,2013-07-25 22:33:00,
2013-07-26 00:38:00,64.0,57.0,29.97,West,270,0.0,0.0,78,0.00,CLR,SKC,0.00,WeatherDisplay:10.37,2013-07-25 22:38:00,
2013-07-26 00:43:00,64.0,57.0,29.97,West,270,0.0,0.0,78,0.00,CLR,SKC,0.00,WeatherDisplay:10.37,2013-07-25 22:43:00,
2013-07-26 00:48:00,64.0,57.4,29.97,West,270,0.0,0.0,79,0.00,CLR,SKC,0.00,WeatherDisplay:10.37,2013-07-25 22:48:00,
2013-07-26 00:53:00,63.7,57.4,29.97,SW,225,0.0,0.0,80,0.00,CLR,SKC,0.00,WeatherDisplay:10.37,2013-07-25 22:53:00,
2013-07-26 00:58:00,63.7,57.4,29.97,SW,225,0.0,0.0,80,0.00,CLR,SKC,0.00,WeatherDisplay:10.37,2013-07-25 22:58:00,
2013-07-26 01:03:00,63.5,57.2,29.98,WNW,292,0.0,0.0,80,0.00,CLR,SKC,0.00,WeatherDisplay:10.37,2013-07-25 23:03:00,
2013-07-26 01:08:00,63.5,57.2,29.98,WNW,292,0.0,0.0,80,0.00,CLR,SKC,0.00,WeatherDisplay:10.37,2013-07-25 23:08:00,
2013-07-26 01:13:00,63.3,57.4,29.97,WNW,292,0.0,0.0,81,0.00,CLR,SKC,0.00,WeatherDisplay:10.37,2013-07-25 23:13:00,
2013-07-26 01:18:00,63.3,57.4,29.98,WNW,292,0.0,0.0,81,0.00,CLR,SKC,0.00,WeatherDisplay:10.37,2013-07-25 23:18:00,
2013-07-26 01:23:00,63.3,57.4,29.98,WNW,292,0.0,0.0,81,0.00,CLR,SKC,0.00,WeatherDisplay:10.37,2013-07-25 23:23:00,
2013-07-26 01:28:00,63.3,57.7,29.98,WNW,292,0.0,0.0,82,0.00,CLR,SKC,0.00,WeatherDisplay:10.37,2013-07-25 23:28:00,
2013-07-26 01:33:00,63.1,57.6,29.97,WNW,292,0.0,0.0,82,0.00,CLR,SKC,0.00,WeatherDisplay:10.37,2013-07-25 23:33:00,
2013-07-26 01:38:00,63.1,57.6,29.98,WNW,292,0.0,0.0,82,0.00,CLR,SKC,0.00,WeatherDisplay:10.37,2013-07-25 23:38:00,
2013-07-26 01:43:00,63.0,57.4,29.97,WNW,292,0.0,0.0,82,0.00,CLR,SKC,0.00,WeatherDisplay:10.37,2013-07-25 23:43:00,
2013-07-26 01:48:00,62.8,57.2,29.97,WNW,292,0.0,0.0,82,0.00,CLR,SKC,0.00,WeatherDisplay:10.37,2013-07-25 23:48:00,
2013-07-26 01:53:00,62.8,57.5,29.97,WNW,292,0.0,0.0,83,0.00,CLR,SKC,0.00,WeatherDisplay:10.37,2013-07-25 23:53:00,
2013-07-26 01:58:00,62.8,57.5,29.97,WNW,292,0.0,0.0,83,0.00,CLR,SKC,0.00,WeatherDisplay:10.37,2013-07-25 23:58:00,
2013-07-26 02:04:00,62.6,57.4,29.97,WNW,292,0.0,0.0,83,0.00,CLR,SKC,0.00,WeatherDisplay:10.37,2013-07-26 00:04:00,
2013-07-26 02:09:00,62.6,57.4,29.97,West,270,0.0,0.0,83,0.00,CLR,SKC,0.00,WeatherDisplay:10.37,2013-07-26 00:09:00,
2013-07-26 02:14:00,62.4,57.2,29.96,West,270,0.0,0.0,83,0.00,CLR,SKC,0.00,WeatherDisplay:10.37,2013-07-26 00:14:00,
2013-07-26 02:19:00,62.4,56.9,29.96,West,270,0.0,0.0,82,0.00,CLR,SKC,0.00,WeatherDisplay:10.37,2013-07-26 00:19:00,
2013-07-26 02:24:00,62.4,56.9,29.97,West,270,0.0,0.0,82,0.00,CLR,SKC,0.00,WeatherDisplay:10.37,2013-07-26 00:24:00,
2013-07-26 02:29:00,62.2,56.7,29.96,WNW,292,0.0,0.0,82,0.00,CLR,SKC,0.00,WeatherDisplay:10.37,2013-07-26 00:29:00,
2013-07-26 02:34:00,62.2,56.7,29.97,WNW,292,0.0,0.0,82,0.00,CLR,SKC,0.00,WeatherDisplay:10.37,2013-07-26 00:34:00,
2013-07-26 02:39:00,62.2,56.7,29.97,WNW,292,0.0,0.0,82,0.00,CLR,SKC,0.00,WeatherDisplay:10.37,2013-07-26 00:39:00,
2013-07-26 02:44:00,62.2,56.7,29.97,WNW,292,0.0,0.0,82,0.00,CLR,SKC,0.00,WeatherDisplay:10.37,2013-07-26 00:44:00,
2013-07-26 02:49:00,62.2,56.7,29.97,WNW,292,0.0,0.0,82,0.00,CLR,SKC,0.00,WeatherDisplay:10.37,2013-07-26 00:49:00,
2013-07-26 02:54:00,62.2,56.7,29.97,WNW,292,0.0,0.0,82,0.00,CLR,SKC,0.00,WeatherDisplay:10.37,2013-07-26 00:54:00,
2013-07-26 02:59:00,62.1,56.5,29.97,WNW,292,0.0,0.0,82,0.00,CLR,SKC,0.00,WeatherDisplay:10.37,2013-07-26 00:59:00,
2013-07-26 03:04:00,62.1,56.5,29.97,WNW,292,0.0,0.0,82,0.00,CLR,SKC,0.00,WeatherDisplay:10.37,2013-07-26 01:04:00,
2013-07-26 03:09:00,61.9,56.3,29.98,WNW,292,0.0,0.0,82,0.00,CLR,SKC,0.00,WeatherDisplay:10.37,2013-07-26 01:09:00,
2013-07-26 03:14:00,61.9,56.3,29.97,WNW,292,0.0,0.0,82,0.00,CLR,SKC,0.00,WeatherDisplay:10.37,2013-07-26 01:14:00,
2013-07-26 03:19:00,61.7,56.1,29.97,WNW,292,0.0,0.0,82,0.00,CLR,SKC,0.00,WeatherDisplay:10.37,2013-07-26 01:19:00,
2013-07-26 03:24:00,61.5,56.0,29.97,WNW,292,0.0,0.0,82,0.00,CLR,SKC,0.00,WeatherDisplay:10.37,2013-07-26 01:24:00,
2013-07-26 03:29:00,61.5,56.0,29.97,WNW,292,0.0,0.0,82,0.00,CLR,SKC,0.00,WeatherDisplay:10.37,2013-07-26 01:29:00,
2013-07-26 03:34:00,61.5,56.0,29.97,WNW,292,0.0,0.0,82,0.00,CLR,SKC,0.00,WeatherDisplay:10.37,2013-07-26 01:34:00,
2013-07-26 03:39:00,61.5,56.0,29.97,WNW,292,0.0,0.0,82,0.00,CLR,SKC,0.00,WeatherDisplay:10.37,2013-07-26 01:39:00,
2013-07-26 03:44:00,61.7,56.1,29.97,WNW,292,0.0,0.0,82,0.00,CLR,SKC,0.00,WeatherDisplay:10.37,2013-07-26 01:44:00,
2013-07-26 03:49:00,61.7,56.5,29.97,WNW,292,0.0,0.0,83,0.00,CLR,SKC,0.00,WeatherDisplay:10.37,2013-07-26 01:49:00,
2013-07-26 03:54:00,61.9,56.7,29.97,WNW,292,0.0,0.0,83,0.00,CLR,SKC,0.00,WeatherDisplay:10.37,2013-07-26 01:54:00,
2013-07-26 03:59:00,62.2,57.0,29.96,WNW,292,0.0,0.0,83,0.00,CLR,SKC,0.00,WeatherDisplay:10.37,2013-07-26 01:59:00,
2013-07-26 04:01:00,62.2,57.0,29.96,WNW,292,0.0,0.0,83,0.00,CLR,SKC,0.00,WeatherDisplay:10.37,2013-07-26 02:01:00,
2013-07-26 04:06:00,62.2,56.7,29.96,WNW,292,0.0,0.0,82,0.00,CLR,SKC,0.00,WeatherDisplay:10.37,2013-07-26 02:06:00,
2013-07-26 04:11:00,62.2,56.7,29.96,WNW,292,0.0,0.0,82,0.00,CLR,SKC,0.00,WeatherDisplay:10.37,2013-07-26 02:11:00,
2013-07-26 04:16:00,62.2,56.7,29.96,WNW,292,0.0,0.0,82,0.00,CLR,SKC,0.00,WeatherDisplay:10.37,2013-07-26 02:16:00,
2013-07-26 04:21:00,62.1,56.5,29.97,WNW,292,0.0,0.0,82,0.00,CLR,SKC,0.00,WeatherDisplay:10.37,2013-07-26 02:21:00,
2013-07-26 04:26:00,61.9,56.3,29.97,WNW,292,0.0,0.0,82,0.00,CLR,SKC,0.00,WeatherDisplay:10.37,2013-07-26 02:26:00,
2013-07-26 04:31:00,61.7,56.1,29.96,WNW,292,0.0,0.0,82,0.00,CLR,SKC,0.00,WeatherDisplay:10.37,2013-07-26 02:31:00,
2013-07-26 04:36:00,61.7,56.1,29.96,WNW,292,0.0,0.0,82,0.00,CLR,SKC,0.00,WeatherDisplay:10.37,2013-07-26 02:36:00,
2013-07-26 04:42:00,61.5,56.0,29.97,WNW,292,0.0,0.0,82,0.00,CLR,SKC,0.00,WeatherDisplay:10.37,2013-07-26 02:42:00,
2013-07-26 04:47:00,61.5,56.3,29.96,WNW,292,0.0,0.0,83,0.00,CLR,SKC,0.00,WeatherDisplay:10.37,2013-07-26 02:47:00,
2013-07-26 04:52:00,61.3,56.1,29.96,WNW,292,0.0,0.0,83,0.00,CLR,SKC,0.00,WeatherDisplay:10.37,2013-07-26 02:52:00,
2013-07-26 04:57:00,61.2,56.0,29.96,WNW,292,0.0,0.0,83,0.00,CLR,SKC,0.00,WeatherDisplay:10.37,2013-07-26 02:57:00,
2013-07-26 05:02:00,61.2,56.0,29.97,WNW,292,0.0,0.0,83,0.00,CLR,SKC,0.00,WeatherDisplay:10.37,2013-07-26 03:02:00,
2013-07-26 05:07:00,61.0,55.8,29.97,WNW,292,0.0,0.0,83,0.00,CLR,SKC,0.00,WeatherDisplay:10.37,2013-07-26 03:07:00,
2013-07-26 05:12:00,61.0,55.8,29.97,WNW,292,0.0,0.0,83,0.00,CLR,SKC,0.00,WeatherDisplay:10.37,2013-07-26 03:12:00,
2013-07-26 05:17:00,60.8,55.9,29.97,WNW,292,0.0,0.0,84,0.00,CLR,SKC,0.00,WeatherDisplay:10.37,2013-07-26 03:17:00,
2013-07-26 05:22:00,60.6,55.8,29.97,WNW,292,0.0,0.0,84,0.00,CLR,SKC,0.00,WeatherDisplay:10.37,2013-07-26 03:22:00,
2013-07-26 05:27:00,60.6,55.8,29.98,WNW,292,0.0,0.0,84,0.00,CLR,SKC,0.00,WeatherDisplay:10.37,2013-07-26 03:27:00,
2013-07-26 05:32:00,60.6,55.8,29.97,WNW,292,0.0,0.0,84,0.00,CLR,SKC,0.00,WeatherDisplay:10.37,2013-07-26 03:32:00,
2013-07-26 05:37:00,60.6,55.8,29.97,WNW,292,0.0,0.0,84,0.00,CLR,SKC,0.00,WeatherDisplay:10.37,2013-07-26 03:37:00,
2013-07-26 05:42:00,60.6,56.1,29.97,WNW,292,0.0,0.0,85,0.00,CLR,SKC,0.00,WeatherDisplay:10.37,2013-07-26 03:42:00,
2013-07-26 05:47:00,60.6,56.1,29.98,WNW,292,0.0,0.0,85,0.00,CLR,SKC,0.00,WeatherDisplay:10.37,2013-07-26 03:47:00,
2013-07-26 05:52:00,60.8,56.3,29.98,WNW,292,0.0,0.0,85,0.00,CLR,SKC,0.00,WeatherDisplay:10.37,2013-07-26 03:52:00,
2013-07-26 05:57:00,61.2,56.6,29.98,WNW,292,0.0,0.0,85,0.00,CLR,SKC,0.00,WeatherDisplay:10.37,2013-07-26 03:57:00,
2013-07-26 06:01:00,61.2,56.6,29.98,WNW,292,0.0,0.0,85,0.00,CLR,SKC,0.00,WeatherDisplay:10.37,2013-07-26 04:01:00,
2013-07-26 06:03:00,61.3,56.8,29.98,North,0,0.0,0.0,85,0.00,CLR,SKC,0.00,WeatherDisplay:10.37,2013-07-26 04:03:00,
2013-07-26 06:08:00,61.5,57.0,29.98,North,0,0.0,0.0,85,0.00,CLR,SKC,0.00,WeatherDisplay:10.37,2013-07-26 04:08:00,
2013-07-26 06:13:00,61.9,57.3,29.98,North,0,0.0,0.0,85,0.00,CLR,SKC,0.00,WeatherDisplay:10.37,2013-07-26 04:13:00,
2013-07-26 06:18:00,62.2,57.7,29.98,North,0,0.0,0.0,85,0.00,CLR,SKC,0.00,WeatherDisplay:10.37,2013-07-26 04:18:00,
2013-07-26 06:23:00,62.2,57.7,29.98,North,0,0.0,0.0,85,0.00,CLR,SKC,0.00,WeatherDisplay:10.37,2013-07-26 04:23:00,
2013-07-26 06:28:00,62.6,58.0,29.98,North,0,0.0,0.0,85,0.00,CLR,SKC,0.00,WeatherDisplay:10.37,2013-07-26 04:28:00,
2013-07-26 06:33:00,63.0,58.4,29.99,NNE,22,0.0,0.0,85,0.00,CLR,SKC,0.00,WeatherDisplay:10.37,2013-07-26 04:33:00,
2013-07-26 06:38:00,63.3,58.4,29.98,East,90,0.0,0.0,84,0.00,CLR,SKC,0.00,WeatherDisplay:10.37,2013-07-26 04:38:00,
2013-07-26 06:43:00,63.7,58.8,29.97,East,90,0.0,0.0,84,0.00,CLR,SKC,0.00,WeatherDisplay:10.37,2013-07-26 04:43:00,
2013-07-26 06:48:00,64.0,58.8,29.98,East,90,0.0,0.0,83,0.00,CLR,SKC,0.00,WeatherDisplay:10.37,2013-07-26 04:48:00,
2013-07-26 06:53:00,64.7,59.4,29.98,East,86,0.0,0.0,83,0.00,CLR,SKC,0.00,WeatherDisplay:10.37,2013-07-26 04:53:00,
2013-07-26 06:58:00,65.1,59.4,29.97,ENE,72,0.0,0.0,82,0.00,CLR,SKC,0.00,WeatherDisplay:10.37,2013-07-26 04:58:00,
2013-07-26 07:03:00,65.5,59.5,29.98,NE,45,0.0,0.0,81,0.00,CLR,SKC,0.00,WeatherDisplay:10.37,2013-07-26 05:03:00,
2013-07-26 07:08:00,66.4,60.0,29.97,NE,45,0.0,0.0,80,0.00,CLR,SKC,0.00,WeatherDisplay:10.37,2013-07-26 05:08:00,
2013-07-26 07:13:00,66.9,60.2,29.97,NE,45,0.0,0.0,79,0.00,CLR,SKC,0.00,WeatherDisplay:10.37,2013-07-26 05:13:00,
2013-07-26 07:18:00,67.5,60.4,29.98,NE,45,0.0,0.0,78,0.00,CLR,SKC,0.00,WeatherDisplay:10.37,2013-07-26 05:18:00,
2013-07-26 07:23:00,68.2,60.7,29.97,SE,135,0.0,0.0,77,0.00,CLR,SKC,0.00,WeatherDisplay:10.37,2013-07-26 05:23:00,
2013-07-26 07:28:00,68.9,61.4,29.97,ESE,112,0.0,0.0,77,0.00,CLR,SKC,0.00,WeatherDisplay:10.37,2013-07-26 05:28:00,
2013-07-26 07:33:00,69.6,61.7,29.97,NNE,22,0.0,0.0,76,0.00,CLR,SKC,0.00,WeatherDisplay:10.37,2013-07-26 05:33:00,
2013-07-26 07:38:00,71.2,62.9,29.97,East,90,0.0,0.0,75,0.00,CLR,SKC,0.00,WeatherDisplay:10.37,2013-07-26 05:38:00,
2013-07-26 07:43:00,71.4,62.3,29.97,East,90,0.0,0.0,73,0.00,CLR,SKC,0.00,WeatherDisplay:10.37,2013-07-26 05:43:00,
2013-07-26 07:48:00,73.2,62.8,29.98,North,0,0.0,0.0,70,0.00,CLR,SKC,0.00,WeatherDisplay:10.37,2013-07-26 05:48:00,
2013-07-26 07:53:00,74.5,64.1,29.98,East,90,0.0,0.0,70,0.00,CLR,SKC,0.00,WeatherDisplay:10.37,2013-07-26 05:53:00,
2013-07-26 07:58:00,75.0,64.2,29.98,NE,45,0.0,0.0,69,0.00,CLR,SKC,0.00,WeatherDisplay:10.37,2013-07-26 05:58:00,
2013-07-26 08:03:00,75.2,63.9,29.99,ENE,68,0.0,0.0,68,0.00,CLR,SKC,0.00,WeatherDisplay:10.37,2013-07-26 06:03:00,
2013-07-26 08:08:00,75.6,63.8,29.98,NE,45,0.0,0.0,67,0.00,CLR,SKC,0.00,WeatherDisplay:10.37,2013-07-26 06:08:00,
2013-07-26 08:13:00,75.2,63.5,29.98,North,0,0.0,0.0,67,0.00,CLR,SKC,0.00,WeatherDisplay:10.37,2013-07-26 06:13:00,
2013-07-26 08:18:00,75.6,63.8,29.98,NE,45,0.0,0.0,67,0.00,CLR,SKC,0.00,WeatherDisplay:10.37,2013-07-26 06:18:00,
2013-07-26 08:23:00,75.9,64.2,29.99,ENE,68,0.0,0.0,67,0.00,CLR,SKC,0.00,WeatherDisplay:10.37,2013-07-26 06:23:00,
2013-07-26 08:28:00,75.9,63.3,29.98,NE,45,0.0,0.0,65,0.00,CLR,SKC,0.00,WeatherDisplay:10.37,2013-07-26 06:28:00,
2013-07-26 08:33:00,76.3,64.1,29.98,NNE,22,0.0,0.0,66,0.00,CLR,SKC,0.00,WeatherDisplay:10.37,2013-07-26 06:33:00,
2013-07-26 08:38:00,75.7,62.2,29.98,NNE,22,0.0,0.0,63,0.00,CLR,SKC,0.00,WeatherDisplay:10.37,2013-07-26 06:38:00,
2013-07-26 08:43:00,75.4,61.0,29.99,NNE,22,0.0,0.0,61,0.00,CLR,SKC,0.00,WeatherDisplay:10.37,2013-07-26 06:43:00,
2013-07-26 08:48:00,75.7,61.8,29.99,North,0,0.0,0.0,62,0.00,CLR,SKC,0.00,WeatherDisplay:10.37,2013-07-26 06:48:00,
2013-07-26 08:53:00,75.9,61.5,29.99,NNE,22,0.0,0.0,61,0.00,CLR,SKC,0.00,WeatherDisplay:10.37,2013-07-26 06:53:00,
2013-07-26 08:58:00,76.6,62.2,29.99,NNE,22,0.0,0.0,61,0.00,CLR,SKC,0.00,WeatherDisplay:10.37,2013-07-26 06:58:00,
2013-07-26 09:03:00,76.8,62.3,29.99,ENE,68,0.0,0.0,61,0.00,CLR,SKC,0.00,WeatherDisplay:10.37,2013-07-26 07:03:00,
2013-07-26 09:08:00,77.4,62.9,29.99,SSE,158,0.0,0.0,61,0.00,CLR,SKC,0.00,WeatherDisplay:10.37,2013-07-26 07:08:00,
2013-07-26 09:13:00,77.7,61.8,29.99,NNE,22,0.0,0.0,58,0.00,CLR,SKC,0.00,WeatherDisplay:10.37,2013-07-26 07:13:00,
2013-07-26 09:18:00,78.4,62.9,29.99,ENE,68,0.0,0.0,59,0.00,CLR,SKC,0.00,WeatherDisplay:10.37,2013-07-26 07:18:00,
2013-07-26 09:23:00,79.0,63.4,29.99,ENE,68,0.0,0.0,59,0.00,CLR,SKC,0.00,WeatherDisplay:10.37,2013-07-26 07:23:00,
2013-07-26 09:28:00,79.7,62.6,29.99,SSE,158,0.0,0.0,56,0.00,CLR,SKC,0.00,WeatherDisplay:10.37,2013-07-26 07:28:00,
2013-07-26 09:33:00,79.9,62.3,29.99,ESE,112,0.0,0.0,55,0.00,CLR,SKC,0.00,WeatherDisplay:10.37,2013-07-26 07:33:00,
2013-07-26 09:38:00,80.2,62.1,29.99,ENE,68,0.0,0.0,54,0.00,CLR,SKC,0.00,WeatherDisplay:10.37,2013-07-26 07:38:00,
2013-07-26 09:43:00,80.6,62.4,29.99,ESE,112,0.0,0.0,54,0.00,CLR,SKC,0.00,WeatherDisplay:10.37,2013-07-26 07:43:00,
2013-07-26 09:48:00,80.6,61.9,29.99,WNW,292,0.0,0.0,53,0.00,CLR,SKC,0.00,WeatherDisplay:10.37,2013-07-26 07:48:00,
2013-07-26 09:53:00,81.1,63.4,29.99,East,90,0.0,0.0,55,0.00,CLR,SKC,0.00,WeatherDisplay:10.37,2013-07-26 07:53:00,
2013-07-26 09:58:00,81.7,63.4,29.99,NE,45,0.0,0.0,54,0.00,CLR,SKC,0.00,WeatherDisplay:10.37,2013-07-26 07:58:00,
2013-07-26 10:03:00,81.5,63.3,29.98,ESE,112,0.0,0.0,54,0.00,CLR,SKC,0.00,WeatherDisplay:10.37,2013-07-26 08:03:00,
2013-07-26 10:08:00,82.0,62.7,29.99,East,90,0.0,0.0,52,0.00,CLR,SKC,0.00,WeatherDisplay:10.37,2013-07-26 08:08:00,
2013-07-26 10:13:00,82.2,62.8,29.99,NNE,22,0.0,0.0,52,0.00,CLR,SKC,0.00,WeatherDisplay:10.37,2013-07-26 08:13:00,
2013-07-26 10:18:00,82.2,63.4,29.99,NNE,22,0.0,0.0,53,0.00,CLR,SKC,0.00,WeatherDisplay:10.37,2013-07-26 08:18:00,
2013-07-26 10:23:00,82.2,61.7,29.99,South,180,0.0,0.0,50,0.00,CLR,SKC,0.00,WeatherDisplay:10.37,2013-07-26 08:23:00,
2013-07-26 10:28:00,82.6,62.6,29.99,NNE,22,0.0,0.0,51,0.00,CLR,SKC,0.00,WeatherDisplay:10.37,2013-07-26 08:28:00,
2013-07-26 10:33:00,82.6,62.6,29.99,NNE,22,0.0,0.0,51,0.00,CLR,SKC,0.00,WeatherDisplay:10.37,2013-07-26 08:33:00,
2013-07-26 10:38:00,83.1,63.7,29.99,ESE,112,0.0,0.0,52,0.00,CLR,SKC,0.00,WeatherDisplay:10.37,2013-07-26 08:38:00,
2013-07-26 10:43:00,83.8,63.8,29.99,South,180,0.0,0.0,51,0.00,CLR,SKC,0.00,WeatherDisplay:10.37,2013-07-26 08:43:00,
2013-07-26 10:48:00,84.0,63.4,29.99,East,90,0.0,0.0,50,0.00,CLR,SKC,0.00,WeatherDisplay:10.37,2013-07-26 08:48:00,
2013-07-26 10:53:00,84.2,63.0,29.98,South,180,0.0,0.0,49,0.00,CLR,SKC,0.00,WeatherDisplay:10.37,2013-07-26 08:53:00,
2013-07-26 10:58:00,84.2,63.0,29.99,NNE,22,0.0,0.0,49,0.00,CLR,SKC,0.00,WeatherDisplay:10.37,2013-07-26 08:58:00,
2013-07-26 11:03:00,84.7,64.0,29.99,ENE,68,0.0,0.0,50,0.00,CLR,SKC,0.00,WeatherDisplay:10.37,2013-07-26 09:03:00,
2013-07-26 11:08:00,84.7,62.9,29.99,ENE,68,3.6,4.6,48,0.00,CLR,SKC,0.00,WeatherDisplay:10.37,2013-07-26 09:08:00,
2013-07-26 11:13:00,84.2,63.0,29.98,NNE,22,0.8,2.3,49,0.00,CLR,SKC,0.00,WeatherDisplay:10.37,2013-07-26 09:13:00,
2013-07-26 11:18:00,84.4,63.1,29.98,North,0,0.0,0.0,49,0.00,CLR,SKC,0.00,WeatherDisplay:10.37,2013-07-26 09:18:00,
2013-07-26 11:23:00,84.9,63.0,29.98,ENE,68,1.8,2.3,48,0.00,CLR,SKC,0.00,WeatherDisplay:10.37,2013-07-26 09:23:00,
2013-07-26 11:28:00,84.9,64.2,29.98,ENE,68,1.8,4.6,50,0.00,CLR,SKC,0.00,WeatherDisplay:10.37,2013-07-26 09:28:00,
2013-07-26 11:33:00,85.1,63.8,29.98,North,0,1.7,2.3,49,0.00,CLR,SKC,0.00,WeatherDisplay:10.37,2013-07-26 09:33:00,
2013-07-26 11:38:00,85.8,64.5,29.98,East,90,1.6,3.5,49,0.00,CLR,SKC,0.00,WeatherDisplay:10.37,2013-07-26 09:38:00,
2013-07-26 11:43:00,85.3,64.0,29.98,NNE,22,2.3,5.8,49,0.00,CLR,SKC,0.00,WeatherDisplay:10.37,2013-07-26 09:43:00,
2013-07-26 11:48:00,84.9,63.6,29.97,ENE,68,1.0,2.3,49,0.00,CLR,SKC,0.00,WeatherDisplay:10.37,2013-07-26 09:48:00,
2013-07-26 11:53:00,85.3,64.5,29.97,ESE,112,0.3,4.6,50,0.00,CLR,SKC,0.00,WeatherDisplay:10.37,2013-07-26 09:53:00,
2013-07-26 11:58:00,85.3,64.0,29.97,NNW,338,2.0,2.3,49,0.00,CLR,SKC,0.00,WeatherDisplay:10.37,2013-07-26 09:58:00,
2013-07-26 12:03:00,85.8,64.5,29.97,WSW,248,2.2,4.6,49,0.00,CLR,SKC,0.00,WeatherDisplay:10.37,2013-07-26 10:03:00,
2013-07-26 12:08:00,85.8,64.5,29.97,NW,315,3.1,5.8,49,0.00,CLR,SKC,0.00,WeatherDisplay:10.37,2013-07-26 10:08:00,
2013-07-26 12:13:00,86.2,64.8,29.97,NNW,338,2.0,8.0,49,0.00,CLR,SKC,0.00,WeatherDisplay:10.37,2013-07-26 10:13:00,
2013-07-26 12:18:00,85.8,63.9,29.97,NNE,15,3.0,5.0,48,0.00,CLR,SKC,0.00,WeatherDisplay:10.37,2013-07-26 10:18:00,
2013-07-26 12:23:00,85.8,63.3,29.97,NE,42,0.0,0.0,47,0.00,CLR,SKC,0.00,WeatherDisplay:10.37,2013-07-26 10:23:00,
2013-07-26 12:28:00,86.5,64.5,29.97,WNW,292,0.5,1.2,48,0.00,CLR,SKC,0.00,WeatherDisplay:10.37,2013-07-26 10:28:00,
2013-07-26 12:33:00,86.5,63.9,29.97,WNW,292,0.0,0.0,47,0.00,CLR,SKC,0.00,WeatherDisplay:10.37,2013-07-26 10:33:00,
2013-07-26 12:38:00,86.4,63.1,29.96,SE,135,0.9,1.2,46,0.00,CLR,SKC,0.00,WeatherDisplay:10.37,2013-07-26 10:38:00,
2013-07-26 12:43:00,86.5,63.9,29.96,NE,45,2.0,4.6,47,0.00,CLR,SKC,0.00,WeatherDisplay:10.37,2013-07-26 10:43:00,
2013-07-26 12:48:00,87.4,63.5,29.96,NW,315,1.1,1.2,45,0.00,CLR,SKC,0.00,WeatherDisplay:10.37,2013-07-26 10:48:00,
2013-07-26 12:53:00,87.1,63.2,29.95,NE,45,2.3,3.5,45,0.00,CLR,SKC,0.00,WeatherDisplay:10.37,2013-07-26 10:53:00,
2013-07-26 12:58:00,87.3,62.7,29.95,NW,315,1.1,1.2,44,0.00,CLR,SKC,0.00,WeatherDisplay:10.37,2013-07-26 10:58:00,
2013-07-26 13:03:00,88.9,64.1,29.95,West,270,1.0,2.3,44,0.00,CLR,SKC,0.00,WeatherDisplay:10.37,2013-07-26 11:03:00,
2013-07-26 13:08:00,89.2,63.8,29.95,NNE,22,1.3,1.3,43,0.00,CLR,SKC,0.00,WeatherDisplay:10.37,2013-07-26 11:08:00,
2013-07-26 13:13:00,89.4,63.3,29.95,SSW,202,0.0,0.0,42,0.00,CLR,SKC,0.00,WeatherDisplay:10.37,2013-07-26 11:13:00,
2013-07-26 13:18:00,90.0,64.5,29.95,ENE,68,0.0,0.0,43,0.00,CLR,SKC,0.00,WeatherDisplay:10.37,2013-07-26 11:18:00,
2013-07-26 13:23:00,89.4,63.3,29.95,WNW,292,3.3,3.5,42,0.00,CLR,SKC,0.00,WeatherDisplay:10.37,2013-07-26 11:23:00,
2013-07-26 13:28:00,89.8,63.6,29.96,ENE,68,2.4,3.5,42,0.00,CLR,SKC,0.00,WeatherDisplay:10.37,2013-07-26 11:28:00,
2013-07-26 13:33:00,88.3,62.3,29.96,North,0,0.9,2.3,42,0.00,CLR,SKC,0.00,WeatherDisplay:10.37,2013-07-26 11:33:00,
2013-07-26 13:38:00,88.0,62.7,29.95,NW,315,0.0,0.0,43,0.00,CLR,SKC,0.00,WeatherDisplay:10.37,2013-07-26 11:38:00,
2013-07-26 13:43:00,88.5,61.8,29.95,West,270,2.2,4.6,41,0.00,CLR,SKC,0.00,WeatherDisplay:10.37,2013-07-26 11:43:00,
2013-07-26 13:48:00,88.9,62.8,29.95,NW,315,0.8,5.8,42,0.00,CLR,SKC,0.00,WeatherDisplay:10.37,2013-07-26 11:48:00,
2013-07-26 13:53:00,89.1,63.0,29.95,NNE,22,1.8,2.3,42,0.00,CLR,SKC,0.00,WeatherDisplay:10.37,2013-07-26 11:53:00,
2013-07-26 13:58:00,89.4,62.6,29.95,East,90,0.0,0.0,41,0.00,CLR,SKC,0.00,WeatherDisplay:10.37,2013-07-26 11:58:00,
2013-07-26 14:03:00,89.8,62.9,29.95,NE,45,0.8,3.5,41,0.00,CLR,SKC,0.00,WeatherDisplay:10.37,2013-07-26 12:03:00,
2013-07-26 14:08:00,90.1,63.3,29.95,NE,45,0.9,2.3,41,0.00,CLR,SKC,0.00,WeatherDisplay:10.37,2013-07-26 12:08:00,
2013-07-26 14:13:00,90.3,63.4,29.95,NNE,22,1.6,1.6,41,0.00,CLR,SKC,0.00,WeatherDisplay:10.37,2013-07-26 12:13:00,
2013-07-26 14:18:00,90.0,63.1,29.95,NNE,22,1.6,3.5,41,0.00,CLR,SKC,0.00,WeatherDisplay:10.37,2013-07-26 12:18:00,
2013-07-26 14:23:00,89.8,62.2,29.95,NNE,22,0.0,0.0,40,0.00,CLR,SKC,0.00,WeatherDisplay:10.37,2013-07-26 12:23:00,
2013-07-26 14:28:00,89.2,62.5,29.95,North,0,1.2,1.2,41,0.00,CLR,SKC,0.00,WeatherDisplay:10.37,2013-07-26 12:28:00,
2013-07-26 14:33:00,89.4,62.6,29.95,NE,45,2.3,4.6,41,0.00,CLR,SKC,0.00,WeatherDisplay:10.37,2013-07-26 12:33:00,
2013-07-26 14:38:00,90.1,63.3,29.95,ENE,68,1.5,2.3,41,0.00,CLR,SKC,0.00,WeatherDisplay:10.37,2013-07-26 12:38:00,
2013-07-26 14:43:00,89.4,62.6,29.95,North,0,2.9,4.6,41,0.00,CLR,SKC,0.00,WeatherDisplay:10.37,2013-07-26 12:43:00,
2013-07-26 14:48:00,88.7,62.7,29.94,North,0,5.2,6.9,42,0.00,CLR,SKC,0.00,WeatherDisplay:10.37,2013-07-26 12:48:00,
2013-07-26 14:53:00,88.9,62.8,29.94,NW,315,0.0,0.0,42,0.00,CLR,SKC,0.00,WeatherDisplay:10.37,2013-07-26 12:53:00,
2013-07-26 14:58:00,89.8,63.6,29.94,NE,45,1.4,2.3,42,0.00,CLR,SKC,0.00,WeatherDisplay:10.37,2013-07-26 12:58:00,
2013-07-26 15:03:00,89.4,63.3,29.93,NNE,22,1.4,3.5,42,0.00,CLR,SKC,0.00,WeatherDisplay:10.37,2013-07-26 13:03:00,
2013-07-26 15:09:00,90.0,63.1,29.94,ENE,68,1.3,1.3,41,0.00,CLR,SKC,0.00,WeatherDisplay:10.37,2013-07-26 13:09:00,
2013-07-26 15:14:00,90.0,63.1,29.94,NW,315,1.7,3.5,41,0.00,CLR,SKC,0.00,WeatherDisplay:10.37,2013-07-26 13:14:00,
2013-07-26 15:19:00,90.5,62.9,29.93,East,90,0.1,0.0,40,0.00,CLR,SKC,0.00,WeatherDisplay:10.37,2013-07-26 13:19:00,
2013-07-26 15:24:00,91.2,63.5,29.93,NNE,22,1.3,3.5,40,0.00,CLR,SKC,0.00,WeatherDisplay:10.37,2013-07-26 13:24:00,
2013-07-26 15:29:00,91.4,63.7,29.94,NE,45,0.0,0.0,40,0.00,CLR,SKC,0.00,WeatherDisplay:10.37,2013-07-26 13:29:00,
2013-07-26 15:34:00,91.4,63.0,29.94,ESE,112,0.0,0.0,39,0.00,CLR,SKC,0.00,WeatherDisplay:10.37,2013-07-26 13:34:00,
2013-07-26 15:39:00,91.0,63.4,29.93,NE,45,1.2,3.1,40,0.00,CLR,SKC,0.00,WeatherDisplay:10.37,2013-07-26 13:39:00,
2013-07-26 15:44:00,90.7,63.0,29.93,NNE,22,4.0,6.9,40,0.00,CLR,SKC,0.00,WeatherDisplay:10.37,2013-07-26 13:44:00,
2013-07-26 15:49:00,90.7,62.3,29.93,North,0,1.0,3.5,39,0.00,CLR,SKC,0.00,WeatherDisplay:10.37,2013-07-26 13:49:00,
2013-07-26 15:54:00,90.9,62.5,29.93,ENE,68,1.3,1.3,39,0.00,CLR,SKC,0.00,WeatherDisplay:10.37,2013-07-26 13:54:00,
2013-07-26 15:59:00,90.1,61.8,29.93,NNE,22,0.0,3.5,39,0.00,CLR,SKC,0.00,WeatherDisplay:10.37,2013-07-26 13:59:00,
2013-07-26 16:04:00,90.5,61.4,29.92,West,270,1.3,5.8,38,0.00,CLR,SKC,0.00,WeatherDisplay:10.37,2013-07-26 14:04:00,
2013-07-26 16:09:00,90.5,61.4,29.92,WNW,292,0.0,0.0,38,0.00,CLR,SKC,0.00,WeatherDisplay:10.37,2013-07-26 14:09:00,
2013-07-26 16:14:00,90.5,62.2,29.92,WNW,292,0.7,1.2,39,0.00,CLR,SKC,0.00,WeatherDisplay:10.37,2013-07-26 14:14:00,
2013-07-26 16:19:00,90.3,61.3,29.92,ESE,112,0.0,0.0,38,0.00,CLR,SKC,0.00,WeatherDisplay:10.37,2013-07-26 14:19:00,
2013-07-26 16:24:00,89.4,61.2,29.92,NNE,22,1.2,2.5,39,0.00,CLR,SKC,0.00,WeatherDisplay:10.37,2013-07-26 14:24:00,
2013-07-26 16:29:00,89.4,61.2,29.92,East,90,2.7,2.7,39,0.00,CLR,SKC,0.00,WeatherDisplay:10.37,2013-07-26 14:29:00,
2013-07-26 16:34:00,89.2,61.0,29.92,East,90,2.5,2.5,39,0.00,CLR,SKC,0.00,WeatherDisplay:10.37,2013-07-26 14:34:00,
2013-07-26 16:39:00,88.7,60.6,29.92,NW,315,4.0,4.0,39,0.00,CLR,SKC,0.00,WeatherDisplay:10.37,2013-07-26 14:39:00,
2013-07-26 16:44:00,88.7,61.3,29.92,WNW,292,0.0,3.5,40,0.00,CLR,SKC,0.00,WeatherDisplay:10.37,2013-07-26 14:44:00,
2013-07-26 16:49:00,88.7,61.3,29.92,WNW,292,0.0,0.0,40,0.00,CLR,SKC,0.00,WeatherDisplay:10.37,2013-07-26 14:49:00,
2013-07-26 16:54:00,88.3,61.0,29.91,North,0,0.6,2.3,40,0.00,CLR,SKC,0.00,WeatherDisplay:10.37,2013-07-26 14:54:00,
2013-07-26 16:59:00,88.5,61.1,29.91,ENE,68,1.1,3.5,40,0.00,CLR,SKC,0.00,WeatherDisplay:10.37,2013-07-26 14:59:00,
2013-07-26 17:04:00,88.7,60.6,29.91,North,0,0.4,1.2,39,0.00,CLR,SKC,0.00,WeatherDisplay:10.37,2013-07-26 15:04:00,
2013-07-26 17:09:00,88.5,59.7,29.91,NE,45,2.9,3.5,38,0.00,CLR,SKC,0.00,WeatherDisplay:10.37,2013-07-26 15:09:00,
2013-07-26 17:14:00,88.5,59.7,29.91,East,90,2.7,2.7,38,0.00,CLR,SKC,0.00,WeatherDisplay:10.37,2013-07-26 15:14:00,
2013-07-26 17:19:00,88.5,60.4,29.91,ENE,68,1.1,2.3,39,0.00,CLR,SKC,0.00,WeatherDisplay:10.37,2013-07-26 15:19:00,
2013-07-26 17:24:00,88.2,60.8,29.91,NE,45,0.1,0.0,40,0.00,CLR,SKC,0.00,WeatherDisplay:10.37,2013-07-26 15:24:00,
2013-07-26 17:29:00,88.0,61.3,29.91,SSE,158,2.7,4.6,41,0.00,CLR,SKC,0.00,WeatherDisplay:10.37,2013-07-26 15:29:00,
2013-07-26 17:34:00,87.6,61.0,29.91,NNE,22,1.8,3.5,41,0.00,CLR,SKC,0.00,WeatherDisplay:10.37,2013-07-26 15:34:00,
2013-07-26 17:39:00,87.6,61.0,29.91,North,0,1.1,1.2,41,0.00,CLR,SKC,0.00,WeatherDisplay:10.37,2013-07-26 15:39:00,
2013-07-26 17:44:00,87.6,61.0,29.91,NE,45,0.0,0.0,41,0.00,CLR,SKC,0.00,WeatherDisplay:10.37,2013-07-26 15:44:00,
2013-07-26 17:49:00,87.6,61.0,29.91,East,90,0.0,3.5,41,0.00,CLR,SKC,0.00,WeatherDisplay:10.37,2013-07-26 15:49:00,
2013-07-26 17:54:00,87.6,61.0,29.91,North,0,0.0,2.3,41,0.00,CLR,SKC,0.00,WeatherDisplay:10.37,2013-07-26 15:54:00,
2013-07-26 17:59:00,87.4,60.8,29.91,NE,45,3.2,3.5,41,0.00,CLR,SKC,0.00,WeatherDisplay:10.37,2013-07-26 15:59:00,
2013-07-26 18:04:00,87.4,61.5,29.91,NNW,338,0.0,0.0,42,0.00,CLR,SKC,0.00,WeatherDisplay:10.37,2013-07-26 16:04:00,
2013-07-26 18:09:00,87.3,60.0,29.91,NNW,338,0.0,2.3,40,0.00,CLR,SKC,0.00,WeatherDisplay:10.37,2013-07-26 16:09:00,
2013-07-26 18:14:00,87.1,60.5,29.91,East,90,0.3,2.3,41,0.00,CLR,SKC,0.00,WeatherDisplay:10.37,2013-07-26 16:14:00,
2013-07-26 18:19:00,87.3,60.7,29.91,South,180,2.2,2.3,41,0.00,CLR,SKC,0.00,WeatherDisplay:10.37,2013-07-26 16:19:00,
2013-07-26 18:24:00,86.7,61.5,29.91,NW,315,0.0,0.0,43,0.00,CLR,SKC,0.00,WeatherDisplay:10.37,2013-07-26 16:24:00,
2013-07-26 18:29:00,86.4,63.1,29.91,NE,45,0.2,0.9,46,0.00,CLR,SKC,0.00,WeatherDisplay:10.37,2013-07-26 16:29:00,
2013-07-26 18:34:00,86.2,61.7,29.91,East,90,0.0,2.3,44,0.00,CLR,SKC,0.00,WeatherDisplay:10.37,2013-07-26 16:34:00,
2013-07-26 18:39:00,86.2,61.7,29.91,East,90,0.0,0.0,44,0.00,CLR,SKC,0.00,WeatherDisplay:10.37,2013-07-26 16:39:00,
2013-07-26 18:44:00,85.8,62.0,29.91,NW,315,0.0,0.0,45,0.00,CLR,SKC,0.00,WeatherDisplay:10.37,2013-07-26 16:44:00,
2013-07-26 18:49:00,85.3,62.2,29.91,NW,315,0.0,1.2,46,0.00,CLR,SKC,0.00,WeatherDisplay:10.37,2013-07-26 16:49:00,
2013-07-26 18:54:00,84.6,62.1,29.91,WNW,292,0.0,0.0,47,0.00,CLR,SKC,0.00,WeatherDisplay:10.37,2013-07-26 16:54:00,
2013-07-26 18:59:00,84.0,62.2,29.91,West,270,0.0,0.0,48,0.00,CLR,SKC,0.00,WeatherDisplay:10.37,2013-07-26 16:59:00,
2013-07-26 19:04:00,83.3,61.6,29.91,West,270,0.0,0.0,48,0.00,CLR,SKC,0.00,WeatherDisplay:10.37,2013-07-26 17:04:00,
2013-07-26 19:09:00,82.8,61.1,29.91,West,270,0.0,0.0,48,0.00,CLR,SKC,0.00,WeatherDisplay:10.37,2013-07-26 17:09:00,
2013-07-26 19:14:00,82.2,61.2,29.91,West,270,0.0,0.0,49,0.00,CLR,SKC,0.00,WeatherDisplay:10.37,2013-07-26 17:14:00,
2013-07-26 19:19:00,81.7,61.2,29.91,West,270,0.0,0.0,50,0.00,CLR,SKC,0.00,WeatherDisplay:10.37,2013-07-26 17:19:00,
2013-07-26 19:24:00,81.1,61.3,29.91,West,273,0.0,0.0,51,0.00,CLR,SKC,0.00,WeatherDisplay:10.37,2013-07-26 17:24:00,
2013-07-26 19:29:00,80.4,61.2,29.91,WNW,282,0.0,0.0,52,0.00,CLR,SKC,0.00,WeatherDisplay:10.37,2013-07-26 17:29:00,
2013-07-26 19:34:00,79.9,61.2,29.90,WNW,291,0.0,0.0,53,0.00,CLR,SKC,0.00,WeatherDisplay:10.37,2013-07-26 17:34:00,
2013-07-26 19:39:00,79.6,61.5,29.91,WNW,292,0.0,0.0,54,0.00,CLR,SKC,0.00,WeatherDisplay:10.37,2013-07-26 17:39:00,
2013-07-26 19:44:00,79.3,61.2,29.91,WNW,292,0.0,0.0,54,0.00,CLR,SKC,0.00,WeatherDisplay:10.37,2013-07-26 17:44:00,
2013-07-26 19:49:00,78.6,61.6,29.91,WNW,292,0.0,0.0,56,0.00,CLR,SKC,0.00,WeatherDisplay:10.37,2013-07-26 17:49:00,
2013-07-26 19:54:00,78.3,61.3,29.91,WNW,292,0.0,0.0,56,0.00,CLR,SKC,0.00,WeatherDisplay:10.37,2013-07-26 17:54:00,
2013-07-26 19:59:00,77.7,61.3,29.91,WNW,292,0.0,0.0,57,0.00,CLR,SKC,0.00,WeatherDisplay:10.37,2013-07-26 17:59:00,
2013-07-26 20:04:00,77.2,60.8,29.91,WNW,292,0.0,0.0,57,0.00,CLR,SKC,0.00,WeatherDisplay:10.37,2013-07-26 18:04:00,
2013-07-26 20:09:00,76.8,60.9,29.91,WNW,292,0.0,0.0,58,0.00,CLR,SKC,0.00,WeatherDisplay:10.37,2013-07-26 18:09:00,
2013-07-26 20:14:00,76.3,60.4,29.91,WNW,292,0.0,0.0,58,0.00,CLR,SKC,0.00,WeatherDisplay:10.37,2013-07-26 18:14:00,
2013-07-26 20:19:00,76.1,60.2,29.91,WNW,292,0.0,0.0,58,0.00,CLR,SKC,0.00,WeatherDisplay:10.37,2013-07-26 18:19:00,
2013-07-26 20:24:00,75.6,60.7,29.91,WNW,292,0.0,0.0,60,0.00,CLR,SKC,0.00,WeatherDisplay:10.37,2013-07-26 18:24:00,
2013-07-26 20:29:00,75.0,60.7,29.91,WNW,292,0.0,0.0,61,0.00,CLR,SKC,0.00,WeatherDisplay:10.37,2013-07-26 18:29:00,
2013-07-26 20:34:00,74.5,60.1,29.91,WNW,292,0.0,0.0,61,0.00,CLR,SKC,0.00,WeatherDisplay:10.37,2013-07-26 18:34:00,
2013-07-26 20:39:00,74.3,60.0,29.91,WNW,292,0.0,0.0,61,0.00,CLR,SKC,0.00,WeatherDisplay:10.37,2013-07-26 18:39:00,
2013-07-26 20:44:00,73.9,60.1,29.91,WNW,292,0.0,0.0,62,0.00,CLR,SKC,0.00,WeatherDisplay:10.37,2013-07-26 18:44:00,
2013-07-26 20:49:00,73.6,59.8,29.91,WNW,292,0.0,0.0,62,0.00,CLR,SKC,0.00,WeatherDisplay:10.37,2013-07-26 18:49:00,
2013-07-26 20:54:00,73.2,59.9,29.92,WNW,292,0.0,0.0,63,0.00,CLR,SKC,0.00,WeatherDisplay:10.37,2013-07-26 18:54:00,
2013-07-26 20:59:00,73.0,59.7,29.92,WNW,292,0.0,0.0,63,0.00,CLR,SKC,0.00,WeatherDisplay:10.37,2013-07-26 18:59:00,
2013-07-26 21:04:00,72.7,59.4,29.92,WNW,292,0.0,0.0,63,0.00,CLR,SKC,0.00,WeatherDisplay:10.37,2013-07-26 19:04:00,
2013-07-26 21:09:00,72.3,59.5,29.91,WNW,292,0.0,0.0,64,0.00,CLR,SKC,0.00,WeatherDisplay:10.37,2013-07-26 19:09:00,
2013-07-26 21:14:00,72.1,59.3,29.92,WNW,292,0.0,0.0,64,0.00,CLR,SKC,0.00,WeatherDisplay:10.37,2013-07-26 19:14:00,
2013-07-26 21:19:00,72.0,59.1,29.92,WNW,292,0.0,0.0,64,0.00,CLR,SKC,0.00,WeatherDisplay:10.37,2013-07-26 19:19:00,
2013-07-26 21:24:00,71.8,58.9,29.92,WNW,292,0.0,0.0,64,0.00,CLR,SKC,0.00,WeatherDisplay:10.37,2013-07-26 19:24:00,
2013-07-26 21:29:00,71.8,58.9,29.92,WNW,292,0.0,0.0,64,0.00,CLR,SKC,0.00,WeatherDisplay:10.37,2013-07-26 19:29:00,
2013-07-26 21:34:00,71.4,58.6,29.92,WNW,292,0.0,0.0,64,0.00,CLR,SKC,0.00,WeatherDisplay:10.37,2013-07-26 19:34:00,
2013-07-26 21:39:00,71.4,59.0,29.93,WNW,292,0.0,0.0,65,0.00,CLR,SKC,0.00,WeatherDisplay:10.37,2013-07-26 19:39:00,
2013-07-26 21:44:00,71.2,58.9,29.93,West,270,0.0,0.0,65,0.00,CLR,SKC,0.00,WeatherDisplay:10.37,2013-07-26 19:44:00,
2013-07-26 21:49:00,71.2,58.9,29.93,West,270,0.0,0.0,65,0.00,CLR,SKC,0.00,WeatherDisplay:10.37,2013-07-26 19:49:00,
2013-07-26 21:54:00,71.2,58.9,29.93,West,270,0.0,0.0,65,0.00,CLR,SKC,0.00,WeatherDisplay:10.37,2013-07-26 19:54:00,
2013-07-26 21:59:00,71.1,59.1,29.93,West,270,0.0,0.0,66,0.00,CLR,SKC,0.00,WeatherDisplay:10.37,2013-07-26 19:59:00,
2013-07-26 22:04:00,70.9,59.0,29.93,West,270,0.0,0.0,66,0.00,CLR,SKC,0.00,WeatherDisplay:10.37,2013-07-26 20:04:00,
2013-07-26 22:09:00,70.7,59.2,29.93,SW,225,0.0,0.0,67,0.00,CLR,SKC,0.00,WeatherDisplay:10.37,2013-07-26 20:09:00,
2013-07-26 22:14:00,70.5,59.4,29.93,SW,225,0.0,0.0,68,0.00,CLR,SKC,0.00,WeatherDisplay:10.37,2013-07-26 20:14:00,
2013-07-26 22:19:00,70.3,59.7,29.93,SW,225,0.0,0.0,69,0.00,CLR,SKC,0.00,WeatherDisplay:10.37,2013-07-26 20:19:00,
2013-07-26 22:24:00,70.3,60.1,29.93,WNW,292,0.0,0.0,70,0.00,CLR,SKC,0.00,WeatherDisplay:10.37,2013-07-26 20:24:00,
2013-07-26 22:29:00,70.2,60.3,29.93,West,270,0.0,0.0,71,0.00,CLR,SKC,0.00,WeatherDisplay:10.37,2013-07-26 20:29:00,
2013-07-26 22:34:00,70.2,60.3,29.93,West,270,0.0,0.0,71,0.00,CLR,SKC,0.00,WeatherDisplay:10.37,2013-07-26 20:34:00,
2013-07-26 22:40:00,70.0,60.1,29.93,South,180,0.0,0.0,71,0.00,CLR,SKC,0.00,WeatherDisplay:10.37,2013-07-26 20:40:00,
2013-07-26 22:45:00,70.2,60.3,29.93,SW,225,0.0,0.0,71,0.00,CLR,SKC,0.00,WeatherDisplay:10.37,2013-07-26 20:45:00,
2013-07-26 22:50:00,69.8,60.4,29.93,WNW,292,0.0,0.0,72,0.00,CLR,SKC,0.00,WeatherDisplay:10.37,2013-07-26 20:50:00,
2013-07-26 22:55:00,69.6,60.2,29.93,WNW,292,0.0,0.0,72,0.00,CLR,SKC,0.00,WeatherDisplay:10.37,2013-07-26 20:55:00,
2013-07-26 23:00:00,69.6,60.2,29.93,SSW,202,0.0,0.0,72,0.00,CLR,SKC,0.00,WeatherDisplay:10.37,2013-07-26 21:00:00,
2013-07-26 23:05:00,69.4,60.0,29.93,West,270,0.0,0.0,72,0.00,CLR,SKC,0.00,WeatherDisplay:10.37,2013-07-26 21:05:00,
2013-07-26 23:10:00,69.3,59.8,29.93,West,270,0.0,0.0,72,0.00,CLR,SKC,0.00,WeatherDisplay:10.37,2013-07-26 21:10:00,
2013-07-26 23:15:00,69.1,59.7,29.93,SW,225,0.0,0.0,72,0.00,CLR,SKC,0.00,WeatherDisplay:10.37,2013-07-26 21:15:00,
2013-07-26 23:20:00,68.9,59.5,29.93,SW,225,0.0,0.0,72,0.00,CLR,SKC,0.00,WeatherDisplay:10.37,2013-07-26 21:20:00,
2013-07-26 23:25:00,68.9,59.5,29.93,SSW,202,0.0,0.0,72,0.00,CLR,SKC,0.00,WeatherDisplay:10.37,2013-07-26 21:25:00,
2013-07-26 23:30:00,68.7,59.3,29.94,SSW,202,0.0,0.0,72,0.00,CLR,SKC,0.00,WeatherDisplay:10.37,2013-07-26 21:30:00,
2013-07-26 23:35:00,68.7,59.7,29.93,SSW,202,0.0,0.0,73,0.00,CLR,SKC,0.00,WeatherDisplay:10.37,2013-07-26 21:35:00,
2013-07-26 23:40:00,68.5,59.5,29.94,WSW,248,0.0,0.0,73,0.00,CLR,SKC,0.00,WeatherDisplay:10.37,2013-07-26 21:40:00,
2013-07-26 23:45:00,68.4,59.4,29.94,WSW,248,0.0,0.0,73,0.00,CLR,SKC,0.00,WeatherDisplay:10.37,2013-07-26 21:45:00,
2013-07-26 23:50:00,68.4,59.4,29.94,WSW,248,0.0,0.0,73,0.00,CLR,SKC,0.00,WeatherDisplay:10.37,2013-07-26 21:50:00,
2013-07-26 23:55:00,68.2,59.2,29.94,WSW,248,0.0,0.0,73,0.00,CLR,SKC,0.00,WeatherDisplay:10.37,2013-07-26 21:55:00,